Theta_e
314 313 312 312 313 313 313 311 309 308 308 307 306 305 305 305 306 306 307 307 307 307 307 307 308 308 309 310 311 312 312 315 315 315 315 315 316 313 312 314 315 315 315 314 313 313 313 313 313 311 316 316 312 315 312 313 323 332 337 330 322 323 323 321 318 316 320 321 315 313 313 316 316 312 310 308 312 317 315 317 316 311 310 310 311 311 311 317
313 313 312 311 312 312 312 311 309 308 307 307 305 305 305 306 306 307 307 307 307 307 307 307 308 308 309 310 311 312 314 317 316 314 314 315 315 314 313 315 315 316 315 314 314 314 315 316 312 312 319 319 311 314 316 311 319 333 331 323 326 329 321 318 319 315 316 317 316 315 313 314 315 314 311 311 316 316 315 317 316 317 316 312 311 312 314 318
313 313 312 311 311 310 311 310 310 309 307 306 306 306 306 306 307 306 307 307 307 307 307 308 308 309 310 311 312 312 315 317 316 315 314 314 314 313 313 315 315 316 316 315 316 314 316 316 310 315 324 321 314 317 322 315 316 323 324 323 328 327 317 313 317 317 314 315 318 316 312 314 313 312 311 313 318 316 318 318 316 319 321 319 313 312 317 320
312 312 311 311 310 309 309 309 310 309 309 308 307 306 306 307 307 306 307 307 307 307 307 308 308 309 310 311 312 313 316 319 317 314 314 313 313 313 313 314 315 316 316 315 316 314 314 313 311 319 323 321 321 321 321 316 315 317 320 322 320 318 316 314 315 316 314 313 318 317 313 314 312 311 312 314 316 316 320 319 316 319 323 324 314 312 318 320
311 311 310 310 310 310 309 309 309 309 311 311 309 306 307 307 307 307 307 306 307 308 307 308 309 310 311 312 313 313 318 320 315 312 313 313 313 313 313 313 315 316 316 316 316 314 313 311 315 324 323 321 327 324 316 312 314 316 314 315 315 315 315 314 313 314 313 313 316 316 313 313 311 311 314 315 316 318 320 317 316 316 318 321 315 312 316 319
311 311 310 309 310 310 309 309 309 310 311 311 310 308 308 308 307 308 307 307 308 308 308 309 309 310 310 312 312 312 317 317 313 312 313 313 313 313 313 314 316 316 315 317 314 313 315 316 320 327 325 321 322 320 316 311 312 317 315 313 315 315 313 314 313 313 313 315 317 316 313 312 313 314 314 313 315 316 314 310 312 310 307 311 312 311 315 318
311 310 310 309 309 310 310 309 309 310 310 310 309 308 308 307 308 308 307 308 308 308 309 309 310 310 311 312 312 317 321 317 312 314 314 313 313 312 313 315 316 316 315 315 314 315 320 323 323 324 324 319 316 315 316 313 315 321 318 314 314 312 312 313 312 312 313 316 316 313 312 313 317 314 311 313 315 316 311 305 306 305 303 308 312 311 313 315
310 309 309 309 309 309 310 309 308 309 309 308 308 308 308 307 307 307 307 307 308 309 310 310 310 310 312 313 314 320 320 316 315 315 314 313 313 312 313 316 316 316 315 314 313 316 320 322 319 318 321 317 314 315 314 315 319 321 317 316 315 313 315 314 314 315 314 315 313 312 314 315 316 311 311 316 317 319 312 305 305 305 306 310 315 313 309 311
309 309 309 308 308 308 309 308 307 308 307 306 307 307 307 307 306 307 307 307 308 309 311 311 311 311 313 312 313 316 313 315 317 315 314 313 313 312 314 316 316 316 315 313 312 313 316 318 317 317 318 315 314 316 315 316 318 316 316 318 316 315 317 314 315 318 316 315 313 314 317 315 311 310 314 318 317 316 311 311 311 312 315 316 316 311 306 308
309 308 308 308 308 308 308 307 306 306 306 306 306 307 306 306 306 307 307 308 308 310 311 312 312 312 313 311 311 311 312 318 318 315 314 313 312 312 314 316 316 316 314 313 312 312 314 316 313 312 316 316 315 315 314 316 315 314 318 319 317 319 319 315 315 318 316 316 314 314 318 315 310 312 317 318 315 312 315 318 314 316 321 317 315 310 306 308
309 309 309 308 307 308 308 307 306 307 308 308 306 306 306 305 306 307 307 308 309 311 312 312 312 313 313 313 315 311 314 319 317 314 313 312 313 313 315 316 316 316 314 313 312 312 313 312 309 309 315 315 314 316 313 312 313 315 319 318 320 324 320 316 318 317 315 315 314 314 315 314 311 313 317 316 311 310 319 323 315 317 320 315 316 311 305 306
310 310 309 308 307 308 309 309 308 307 308 309 307 306 306 306 306 307 307 309 310 311 312 313 313 314 313 314 318 315 316 319 315 314 313 311 313 314 315 316 316 316 315 313 312 312 312 311 311 315 317 313 315 316 312 312 313 315 318 317 322 328 321 315 318 315 314 315 315 315 315 317 314 315 317 314 309 309 317 323 318 316 316 314 314 311 306 305
310 310 310 309 308 309 310 309 309 309 309 309 308 306 307 306 306 307 308 310 311 312 313 313 314 314 312 313 316 315 317 318 315 313 313 312 313 314 316 316 316 316 315 314 312 312 312 311 313 316 315 317 317 312 313 317 316 316 317 319 324 327 322 315 313 313 313 315 315 315 317 323 322 318 316 312 309 312 317 321 317 315 314 313 312 311 310 305
310 310 311 310 309 309 311 311 311 310 310 310 308 307 306 306 307 308 309 311 312 313 313 313 314 313 312 313 314 315 317 317 316 314 312 313 314 315 315 315 316 315 315 315 313 312 312 312 313 313 312 316 314 310 322 327 323 320 315 322 327 319 322 322 315 315 314 313 312 314 317 321 323 321 316 310 310 315 320 320 315 314 313 312 311 311 311 306
310 310 310 311 310 310 311 311 311 311 311 311 309 307 306 307 308 308 310 311 312 313 314 314 313 315 318 315 313 315 316 316 317 314 313 314 314 314 314 315 315 314 315 313 313 312 312 312 316 318 313 312 314 317 330 329 328 326 313 323 327 316 327 330 318 317 315 312 311 314 319 319 319 319 315 308 309 313 318 318 314 314 313 311 311 309 310 306
310 310 310 310 310 310 310 310 310 311 311 311 310 309 308 309 309 311 312 312 313 313 313 314 311 314 317 314 313 314 314 316 318 315 314 314 314 315 314 314 314 313 314 313 314 313 312 315 316 314 313 315 322 330 333 326 329 328 315 320 327 320 326 324 316 315 314 313 312 313 319 322 321 319 313 307 309 311 314 316 313 313 311 310 309 307 308 307
311 311 310 310 310 310 310 310 311 311 312 312 312 311 311 311 311 313 314 314 315 313 312 313 310 310 312 310 313 315 314 316 316 315 315 314 315 315 313 313 312 311 313 312 313 314 313 317 314 312 318 322 325 330 328 323 325 327 318 320 326 323 322 321 320 316 311 313 313 314 316 317 319 318 316 313 310 311 316 317 313 311 309 308 308 307 307 307
312 312 311 310 310 310 309 310 311 312 312 312 313 314 313 314 313 314 315 313 313 311 311 311 309 310 311 309 312 314 315 315 315 315 315 314 314 314 314 313 309 311 317 316 314 315 316 319 320 320 323 323 322 325 324 323 327 330 326 324 325 322 318 322 325 316 311 313 314 316 315 314 315 314 315 317 313 314 319 316 311 310 309 308 308 307 307 306
313 312 312 311 311 310 309 309 311 312 312 312 314 314 313 314 315 315 314 312 312 310 311 313 310 312 313 311 313 314 315 315 315 315 314 314 313 313 314 312 313 317 319 320 316 316 320 324 324 322 323 323 321 320 320 323 325 330 334 334 330 324 320 324 327 320 313 313 316 316 315 315 314 313 313 316 315 315 317 313 310 310 309 308 308 307 307 306
313 313 312 312 311 311 310 310 311 311 311 313 315 311 311 314 314 313 314 316 316 312 314 318 314 313 315 315 315 315 315 314 314 315 313 313 313 315 314 312 322 325 322 325 320 315 321 326 325 325 324 322 320 319 319 321 322 325 331 332 329 324 323 326 326 321 313 314 320 318 314 314 313 314 312 312 315 315 316 315 313 311 309 309 308 307 307 306
314 313 313 312 312 312 311 310 311 311 310 314 313 308 311 316 310 309 316 319 314 309 314 318 313 313 314 313 314 314 316 317 314 314 313 312 313 315 316 317 323 324 322 325 320 315 321 326 325 326 322 318 320 321 321 322 323 326 325 323 325 324 324 325 322 319 315 315 322 321 317 315 313 313 312 311 314 314 315 316 315 313 310 309 308 308 308 306
314 314 313 312 312 312 311 310 311 311 312 314 312 309 312 313 310 310 313 317 315 309 314 315 311 315 313 311 314 313 317 321 317 315 314 312 314 315 320 323 323 322 320 319 320 320 323 325 324 322 320 319 320 319 320 321 321 326 326 321 324 325 322 323 320 317 315 315 322 324 319 317 315 314 313 312 312 311 312 312 313 314 313 311 310 309 307 307
315 314 314 313 312 312 311 311 312 312 312 313 312 312 312 313 313 311 310 315 316 313 315 317 316 319 316 312 314 315 317 322 321 319 315 312 315 317 318 323 324 323 320 319 323 324 324 326 322 318 320 323 320 318 320 320 320 324 326 322 323 325 322 323 321 318 316 315 320 324 319 316 316 315 315 314 313 313 312 312 311 311 312 311 311 310 308 308
315 314 314 313 312 312 311 311 313 312 312 313 312 313 315 314 314 312 313 315 314 315 316 315 314 319 320 313 312 317 319 319 321 319 314 313 317 316 317 322 323 322 320 320 322 322 323 323 316 314 319 323 323 319 320 321 322 324 323 320 322 325 324 323 322 321 320 318 317 321 321 322 323 320 319 317 316 316 313 313 312 310 310 310 310 310 309 309
316 315 314 314 312 312 311 312 314 313 312 312 312 313 315 314 312 311 315 315 313 315 313 310 312 316 316 312 313 318 318 318 320 318 313 313 317 316 316 319 321 322 320 319 318 320 322 317 314 317 316 321 325 321 323 324 324 327 325 321 321 324 324 322 322 321 326 328 319 317 323 332 332 326 323 324 323 322 318 315 315 313 312 311 310 310 309 308
316 315 315 314 313 312 311 313 314 313 314 312 310 314 315 314 313 311 314 317 314 314 311 310 313 314 312 313 316 316 315 315 315 314 312 313 315 314 316 317 317 320 320 319 319 319 320 314 317 324 319 320 322 320 324 322 321 326 325 321 319 319 320 321 321 321 329 332 318 316 327 330 327 323 325 330 331 331 326 321 319 316 314 313 312 311 310 308
317 316 315 314 313 311 312 314 313 313 317 314 309 312 314 314 314 310 312 316 314 314 315 313 310 310 312 313 313 311 312 314 312 312 313 313 313 313 318 319 315 319 319 318 320 318 318 316 317 323 323 322 321 322 324 318 323 329 321 319 320 318 321 321 320 322 327 326 319 322 329 326 324 321 323 326 327 328 326 323 321 318 316 316 314 312 311 310
317 316 316 315 313 312 312 313 314 314 315 313 309 311 314 314 312 311 313 315 313 313 316 314 310 310 313 311 313 314 313 315 316 315 312 312 313 314 319 321 318 321 319 319 320 316 317 322 320 320 323 323 322 325 322 317 324 326 315 316 320 320 323 323 323 324 323 322 324 325 323 324 326 322 321 322 321 324 325 324 323 319 318 320 320 318 312 308
317 317 316 315 313 312 311 312 314 313 312 312 310 311 314 313 311 313 316 313 314 314 313 314 311 313 314 311 314 318 314 315 318 315 311 312 313 314 318 320 320 320 316 316 320 316 315 319 318 319 322 323 322 319 316 317 322 318 311 315 318 319 323 324 326 328 324 325 328 327 323 324 325 322 324 323 321 326 327 325 322 318 321 325 328 324 313 306
318 317 316 315 314 312 312 312 313 313 312 312 311 312 315 314 311 311 312 311 313 316 312 313 313 315 316 313 314 317 315 316 316 314 315 315 315 316 315 315 320 323 319 317 320 318 313 310 313 319 320 320 320 314 312 318 318 313 317 323 323 324 325 326 326 324 327 330 329 327 324 324 325 324 326 324 324 327 323 324 324 320 324 328 330 324 312 305
318 318 317 316 314 312 312 313 312 313 313 312 313 313 314 319 318 311 310 310 310 316 314 314 315 315 316 314 315 317 317 317 315 316 318 316 317 320 317 315 320 325 324 320 321 319 315 314 316 318 316 316 320 317 312 313 312 317 329 329 326 328 326 327 327 326 331 331 325 322 319 321 325 323 324 324 323 324 322 324 330 331 332 332 332 324 310 304
319 318 317 316 314 313 313 312 312 313 313 312 314 314 311 317 318 313 312 311 310 317 318 318 317 315 316 315 316 317 319 319 316 316 320 318 318 319 318 319 320 322 323 321 321 320 319 321 320 315 313 316 324 324 317 314 313 320 330 327 327 331 327 328 329 327 329 325 317 317 319 321 322 322 324 323 322 324 322 320 324 330 332 331 331 322 309 303
318 318 317 316 315 313 313 313 312 313 313 313 315 318 318 316 313 311 313 312 313 316 318 321 319 316 316 317 317 316 317 319 316 317 319 318 319 318 318 320 318 319 325 321 318 321 321 320 317 316 316 318 322 323 322 321 318 320 325 327 329 331 331 335 332 324 324 322 314 313 319 322 323 324 324 320 319 323 323 319 318 319 322 323 322 316 308 303
318 318 317 316 316 314 314 313 312 313 313 313 315 318 318 314 311 312 311 311 318 319 319 320 317 315 316 318 318 316 316 317 316 318 319 317 320 320 320 320 317 321 328 322 318 321 321 319 318 318 319 319 319 319 324 324 319 318 322 325 328 330 333 337 334 329 328 327 318 312 320 327 327 328 325 321 322 324 325 324 319 315 314 313 312 310 308 304
319 318 317 316 315 314 314 312 312 313 313 314 315 313 312 311 309 311 310 313 323 324 320 317 317 318 318 319 319 316 316 318 315 317 319 319 320 320 319 319 316 320 324 319 319 321 319 322 322 318 317 317 317 320 323 323 319 318 320 324 326 328 329 325 322 323 324 326 323 318 322 325 323 323 322 321 323 324 325 321 318 318 313 309 310 308 307 304
319 318 316 316 314 314 314 312 312 313 313 316 316 312 311 310 311 312 312 317 325 323 319 318 320 322 320 319 320 316 316 319 317 318 319 319 320 319 318 319 316 317 316 315 322 323 321 323 319 314 317 316 316 319 320 320 321 319 319 325 322 320 327 327 318 314 316 322 325 323 323 322 321 322 319 317 319 319 320 319 318 318 312 310 312 309 306 305
318 317 316 316 314 314 314 313 313 313 314 317 316 312 310 310 316 319 317 318 320 319 319 320 320 323 321 320 321 319 318 320 318 319 320 319 320 320 318 319 318 316 315 316 322 323 322 323 317 314 319 314 310 317 319 315 318 322 324 325 318 316 325 329 325 323 323 326 326 323 324 323 323 324 321 320 322 321 321 318 316 315 313 314 315 309 306 304
317 316 316 316 315 314 314 313 313 312 315 318 317 316 314 313 317 322 320 318 317 318 320 318 316 320 322 320 321 319 317 319 318 318 320 318 319 320 318 319 320 316 315 316 319 320 320 321 319 313 316 314 310 317 321 314 313 320 324 321 320 325 328 325 326 330 330 329 329 325 323 321 320 322 322 322 325 326 323 318 317 318 320 319 315 311 308 304
315 315 316 316 315 314 314 313 313 313 317 319 317 317 317 315 314 318 321 319 317 317 318 316 315 318 321 320 321 319 317 318 318 318 320 319 318 320 317 317 320 317 315 315 317 321 320 318 321 313 311 315 314 318 323 319 314 315 317 316 319 325 326 325 326 327 329 331 331 329 324 322 322 325 325 322 324 325 323 321 323 323 320 317 314 312 309 305
313 315 315 315 315 314 313 313 314 315 317 318 317 316 315 314 313 316 320 318 316 317 315 316 318 319 321 319 319 321 318 317 317 318 320 318 318 320 317 317 320 317 316 315 316 321 320 316 320 316 311 315 319 320 321 321 318 317 319 319 319 320 321 324 323 322 327 333 332 330 327 323 324 326 327 325 325 326 325 326 329 326 319 316 314 313 311 306
312 315 315 314 315 314 313 314 316 316 316 315 315 314 313 314 314 316 317 316 316 317 315 317 319 318 320 319 318 320 319 318 318 318 319 317 318 320 318 317 321 318 316 317 316 319 320 319 321 320 316 318 322 319 316 317 319 319 320 320 319 320 321 324 323 320 325 328 327 328 327 323 323 324 325 327 328 328 326 326 331 328 320 318 318 315 311 306
313 315 314 313 314 313 313 316 316 315 314 313 314 315 314 315 316 316 316 315 316 316 315 319 319 317 319 320 319 320 320 320 319 318 320 319 316 319 317 316 319 317 316 318 318 318 322 325 325 323 320 319 317 312 309 313 318 317 320 321 320 319 320 324 325 323 324 323 320 322 324 323 323 324 328 330 330 328 324 324 332 328 316 315 319 316 310 304
314 314 313 313 314 313 314 317 316 313 312 312 313 315 316 315 315 316 317 316 315 315 316 318 319 317 318 320 320 320 320 320 319 318 321 320 317 319 321 318 317 317 318 320 322 321 322 324 323 324 325 320 315 311 308 311 315 317 320 321 320 319 320 323 324 323 325 324 321 322 324 324 321 322 323 321 320 324 322 320 325 325 316 311 315 317 310 303
313 313 312 313 313 314 315 316 315 313 312 311 311 314 315 315 315 315 317 316 315 316 315 315 318 318 317 320 320 319 319 319 319 318 319 320 319 318 321 321 318 317 318 320 320 319 320 323 323 324 326 324 319 317 315 313 315 320 322 319 318 318 320 322 323 322 324 325 323 324 325 324 319 317 317 316 316 323 326 319 316 321 321 315 314 316 309 302
313 313 311 311 313 314 317 317 314 312 311 311 311 312 313 315 316 315 316 316 316 317 316 316 318 317 318 320 319 318 319 318 319 319 318 320 320 316 317 320 318 317 318 319 317 316 320 323 321 321 323 323 322 323 323 319 316 319 322 319 317 318 320 321 322 322 323 323 323 323 324 323 320 316 316 316 317 321 323 321 317 316 315 312 313 316 308 302
312 313 312 311 312 313 316 316 314 312 311 311 311 312 312 313 315 315 316 317 317 318 318 319 319 317 318 319 318 318 319 317 319 320 319 321 322 318 315 316 317 316 318 320 319 320 324 324 319 320 322 321 321 322 323 321 319 319 321 319 317 318 319 320 321 322 323 323 323 322 321 322 321 320 319 319 321 323 324 326 324 321 319 315 312 311 307 302
310 312 313 313 313 314 314 315 315 314 312 311 311 312 311 312 313 314 314 316 317 317 318 319 319 318 318 318 317 318 319 318 319 320 320 320 320 317 313 313 315 316 318 319 319 321 326 325 320 321 321 320 321 322 321 322 322 321 320 319 318 317 318 320 321 322 322 324 324 322 321 322 321 320 322 324 324 324 326 330 328 326 327 321 312 308 306 303
309 310 311 312 313 315 314 314 315 314 313 312 311 311 311 312 313 314 314 315 315 316 317 319 319 319 319 318 318 318 318 319 319 319 319 319 319 318 315 313 314 315 317 318 317 320 325 324 322 323 322 320 321 322 322 324 323 321 320 319 318 317 317 319 320 320 321 323 324 322 322 323 321 318 320 324 326 326 325 326 322 320 322 320 314 312 310 305
308 309 309 310 312 314 313 313 314 314 313 312 310 310 311 311 312 312 313 314 314 315 316 318 318 318 319 319 320 320 319 319 320 319 318 318 319 320 319 317 316 314 315 317 318 320 322 322 322 323 322 322 322 321 322 321 321 320 320 319 319 318 317 318 319 319 320 321 321 321 322 322 320 319 320 322 327 327 323 319 318 321 325 324 319 316 315 312
307 308 308 309 310 311 312 312 313 313 313 312 311 310 310 311 312 312 312 314 314 314 315 316 316 317 318 318 319 320 320 319 320 320 319 318 319 319 319 320 320 316 314 316 318 318 318 322 324 322 322 322 322 321 322 321 320 320 320 319 319 318 317 318 318 319 319 320 320 320 322 321 319 321 323 322 323 322 320 319 320 321 322 320 317 317 318 317
305 304 306 308 310 310 311 312 312 312 313 312 311 311 310 311 311 312 312 313 314 314 315 315 316 316 317 317 318 319 319 318 319 319 319 318 319 319 318 319 321 319 314 314 318 318 317 321 324 322 322 323 322 322 322 320 318 318 319 320 319 318 318 317 318 318 319 320 320 320 321 321 319 321 323 322 321 320 319 319 318 317 317 317 316 316 319 321
304 303 304 307 309 310 310 311 311 312 313 311 310 311 311 311 310 311 312 312 313 314 314 315 315 315 316 317 316 317 317 318 318 319 319 319 319 319 319 318 319 321 318 315 316 318 318 319 320 320 322 323 322 322 322 319 318 320 320 319 318 318 318 317 317 317 317 318 320 321 320 319 321 323 322 321 321 320 319 318 316 316 316 316 316 316 317 320
Wind_Speed
5 4 3 3 3 3 3 3 4 4 3 4 4 4 4 5 5 4 4 4 3 2 1 1 3 4 5 5 5 5 5 4 2 4 5 2 3 4 5 5 5 6 4 3 3 3 3 6 6 5 5 5 5 2 3 3 3 4 3 4 2 3 4 6 8 7 4 2 5 4 3 6 3 2 1 1 3 3 1 2 2 3 4 4 3 2 5 11
5 5 3 3 4 3 4 4 3 4 4 4 4 4 4 5 5 5 5 4 3 1 0 1 2 3 4 4 4 4 4 3 5 7 6 3 2 4 5 6 6 6 4 5 6 5 4 3 4 5 6 3 3 3 2 3 4 4 3 3 3 5 5 5 8 6 2 2 5 4 2 4 4 4 3 2 2 3 1 3 3 4 5 4 3 3 7 13
6 5 4 3 3 4 5 4 4 4 4 4 4 4 5 5 5 5 5 4 3 2 0 1 2 3 4 4 4 5 3 3 5 5 4 4 4 4 5 6 6 6 5 6 6 7 6 3 3 5 5 4 2 3 3 4 2 2 4 2 4 6 3 3 6 6 3 3 6 4 2 1 2 3 2 3 1 0 4 5 2 5 7 5 4 5 10 13
7 6 4 4 3 3 5 5 4 4 3 3 4 4 5 5 5 5 5 4 3 2 1 1 2 3 3 3 4 4 2 5 3 2 2 5 5 5 5 6 6 6 6 6 6 6 6 6 6 6 5 3 4 3 4 3 1 2 3 3 4 2 1 2 6 5 3 3 6 5 4 1 2 2 2 5 3 3 6 7 7 9 8 7 5 7 12 12
7 6 5 5 4 3 3 5 4 4 3 3 4 5 5 5 5 5 5 5 4 3 1 1 2 3 3 3 4 3 3 5 1 2 3 4 5 5 5 7 6 6 6 5 4 5 5 5 7 6 5 3 4 4 2 3 1 3 1 2 4 2 2 1 4 4 3 3 5 6 5 3 2 2 3 7 5 5 5 5 8 8 6 7 8 10 11 12
7 6 6 5 4 3 3 4 4 4 3 3 4 5 5 5 5 5 5 5 4 3 2 1 2 2 2 3 3 3 4 2 3 4 4 4 5 4 5 6 6 7 6 5 4 4 4 5 7 4 4 3 3 3 1 4 2 3 1 1 3 2 1 0 2 3 3 5 6 5 3 2 3 1 2 6 8 7 4 3 5 6 5 7 10 12 11 11
8 6 5 5 4 4 3 3 4 5 4 5 5 5 5 5 6 5 5 5 5 3 2 1 2 2 2 3 2 4 5 1 2 5 5 4 4 3 5 7 7 6 5 6 5 4 4 7 6 3 4 4 0 2 1 4 4 5 2 1 2 2 1 1 1 2 3 5 5 3 2 3 4 3 1 4 11 6 2 2 3 5 5 8 10 10 10 12
8 7 6 6 5 5 4 4 4 5 6 6 6 6 6 5 6 6 6 5 5 4 3 2 2 2 2 2 2 4 3 1 2 7 6 4 3 3 4 6 7 5 7 10 5 4 4 6 4 4 4 3 3 3 2 2 5 5 3 2 2 1 3 2 2 3 2 2 1 2 2 3 4 2 0 8 11 4 1 1 2 3 6 8 8 8 9 10
8 9 8 6 6 6 5 5 5 5 6 7 6 7 7 6 6 6 6 5 5 4 3 3 2 2 2 2 5 4 1 2 1 7 7 5 3 3 3 6 7 6 10 11 6 4 3 2 3 4 4 3 4 2 3 2 2 1 3 2 2 1 4 0 3 3 0 1 2 3 1 3 2 0 4 10 7 3 3 3 3 5 6 6 6 7 9 10
9 9 8 7 6 5 4 5 5 4 5 6 7 7 7 8 8 7 7 6 5 5 4 3 3 3 2 2 6 3 2 2 2 7 6 5 3 2 4 7 7 8 10 11 10 8 4 5 5 5 6 3 3 2 2 2 2 2 3 2 3 1 3 2 2 1 1 2 3 3 2 2 2 1 5 6 1 4 4 4 2 5 5 6 5 5 8 10
9 9 8 7 6 5 4 3 3 3 3 4 5 6 7 7 8 8 7 6 6 5 4 4 4 3 2 4 6 3 1 3 3 6 6 5 3 2 6 7 6 8 10 10 11 8 6 9 8 6 3 2 3 3 3 2 2 2 3 2 4 5 2 3 2 2 2 1 4 3 2 1 2 2 6 2 2 3 4 4 3 4 5 5 4 3 6 8
9 9 8 7 6 5 4 4 4 3 2 2 3 4 5 6 8 8 7 7 6 5 5 4 4 3 2 5 3 4 2 3 3 5 6 5 4 5 8 8 7 8 8 9 7 6 8 8 8 6 1 3 3 2 2 2 2 2 3 2 5 8 4 3 3 3 2 1 3 3 2 3 3 8 7 0 2 2 3 5 4 5 4 3 3 2 4 7
10 9 8 7 6 6 5 4 3 3 2 2 1 2 3 5 6 7 7 7 6 6 5 5 4 4 3 2 2 4 3 3 4 6 6 6 6 7 9 8 9 9 9 11 8 7 7 5 9 8 3 5 3 1 3 4 3 0 3 2 3 7 4 4 3 2 1 2 1 2 3 6 7 12 8 1 3 4 2 6 5 4 4 3 3 3 4 6
10 10 9 8 7 6 5 4 3 2 2 1 1 3 4 5 6 6 7 7 6 6 5 6 5 3 4 1 3 3 3 3 4 6 7 8 8 10 10 9 10 10 10 12 11 10 8 7 11 9 3 4 3 2 4 5 3 1 2 2 2 2 4 6 2 1 3 1 1 3 4 6 8 11 6 1 4 6 6 8 5 5 4 4 4 4 4 6
9 10 10 9 8 6 5 5 4 3 2 1 2 4 6 7 7 7 8 7 7 7 6 6 5 4 3 2 2 1 3 4 6 7 8 9 9 9 9 9 10 11 11 11 12 11 9 7 9 6 1 2 3 5 4 4 4 3 1 2 3 1 5 8 2 3 2 1 1 4 4 7 9 9 4 1 4 5 8 8 5 6 6 5 4 4 4 5
9 9 10 10 9 7 7 6 5 4 3 2 3 6 8 9 8 9 9 8 8 7 6 5 4 5 3 1 1 1 2 4 6 7 8 9 7 8 10 11 10 10 10 10 9 8 8 8 5 3 2 2 5 5 4 4 4 4 1 2 1 2 3 6 2 2 1 1 0 2 3 5 6 6 4 0 4 4 6 8 7 7 7 5 4 4 4 4
10 8 7 9 9 7 6 5 4 4 3 3 6 9 10 10 10 10 10 10 9 7 6 6 5 5 1 1 2 2 1 4 6 8 8 8 7 10 12 9 8 9 9 8 6 5 7 7 2 0 3 3 3 5 4 2 4 3 2 1 3 2 2 3 4 2 1 2 2 3 4 8 8 7 5 2 5 5 6 10 8 6 6 5 4 4 5 5
12 9 6 7 8 8 6 7 6 5 4 5 8 11 11 11 11 12 12 12 10 8 6 4 5 3 2 2 2 1 2 4 7 9 9 9 9 10 9 6 6 8 7 6 5 4 5 4 2 2 3 3 2 5 3 4 4 3 2 1 2 2 2 3 4 2 2 1 3 3 5 11 13 12 10 4 6 6 8 9 7 6 7 6 6 6 6 6
12 10 8 7 7 7 6 8 8 6 6 8 10 13 13 11 9 8 8 7 5 4 2 3 3 3 3 2 0 3 5 6 8 8 9 11 11 11 11 8 7 6 5 2 3 3 2 3 4 2 1 2 4 6 7 7 6 7 5 4 4 3 3 5 6 4 2 2 5 7 9 11 12 13 12 5 5 6 8 7 7 7 7 7 7 7 8 9
13 11 10 8 6 5 4 7 9 8 8 10 12 12 9 6 5 2 1 1 3 4 3 3 4 4 1 1 2 7 8 6 4 4 8 11 12 12 8 6 6 6 4 3 0 2 3 4 2 5 7 7 8 7 5 5 6 7 5 3 4 4 4 5 4 4 2 2 6 8 9 11 11 12 13 6 3 5 8 9 10 10 8 9 9 10 12 12
13 12 11 9 7 5 4 8 10 8 9 11 11 7 3 4 3 1 2 3 5 5 4 2 3 2 2 3 6 8 5 3 3 2 9 9 9 9 2 4 5 3 1 3 2 2 5 4 7 9 6 5 6 6 7 6 6 6 5 2 2 3 5 7 3 3 1 2 5 5 7 12 11 12 13 7 4 8 11 11 13 13 11 10 11 14 13 9
14 13 12 11 9 5 5 10 11 8 9 10 8 4 2 4 5 3 3 1 5 5 4 2 1 1 1 3 7 6 3 3 2 1 7 6 4 5 1 4 5 3 1 2 3 3 3 3 11 8 5 6 5 6 7 5 5 4 3 2 3 3 4 6 3 4 1 2 4 5 7 11 10 11 12 11 10 10 11 12 14 14 12 11 12 14 11 8
14 14 13 12 10 6 6 13 11 7 8 9 7 5 4 6 7 4 4 2 4 2 4 4 3 4 2 1 7 7 3 4 3 4 7 6 2 3 5 5 5 5 3 4 5 4 2 6 9 5 8 7 6 5 7 6 3 2 3 3 3 2 1 4 4 4 1 1 3 4 8 10 9 10 12 13 13 10 9 12 13 12 13 14 13 10 10 11
15 15 13 13 12 7 8 14 10 6 9 9 8 7 8 8 7 3 2 2 3 4 2 5 4 5 5 4 9 10 2 3 5 4 10 9 4 3 5 5 5 5 4 7 7 5 5 6 2 5 7 7 7 4 6 5 2 3 5 6 4 3 5 5 3 4 2 2 3 4 8 8 7 9 11 8 5 7 10 11 12 13 14 14 11 9 11 12
17 16 14 15 12 9 12 14 8 8 9 7 8 10 11 9 6 4 3 3 3 4 3 3 3 5 8 7 10 10 2 2 4 6 12 12 7 4 2 2 4 4 6 5 5 4 6 4 3 7 4 6 7 4 5 7 3 4 5 9 9 7 7 5 3 5 4 3 3 4 5 6 3 4 9 5 3 7 7 7 13 15 14 12 11 12 11 9
19 18 17 16 13 13 14 9 8 11 7 4 9 12 11 9 7 6 5 4 3 4 1 3 4 6 9 7 8 7 3 3 3 4 12 11 6 5 3 1 2 3 6 5 3 3 2 1 4 7 5 6 6 3 5 7 4 3 4 7 9 6 4 4 1 2 1 4 3 4 1 7 5 5 9 6 5 9 7 7 12 13 12 10 10 11 7 6
21 20 19 18 17 17 12 6 10 13 5 4 11 15 11 9 8 4 4 4 4 3 4 2 1 5 8 8 8 7 3 5 2 4 7 7 4 4 4 4 2 2 4 4 1 2 3 2 4 6 6 6 5 3 6 8 7 3 4 4 6 6 5 5 4 3 3 2 4 3 2 5 9 6 7 8 7 9 10 12 14 13 12 10 7 7 6 8
22 21 21 20 20 18 10 8 15 13 4 6 15 18 14 11 8 3 5 0 4 2 4 1 1 3 3 4 5 5 2 2 4 2 1 4 3 4 3 7 7 6 4 5 4 3 3 5 5 7 5 4 5 4 7 10 5 4 2 5 6 6 5 4 5 2 1 3 4 3 2 3 10 4 1 2 7 7 11 15 16 15 11 6 5 8 8 9
24 23 23 22 22 18 10 9 15 13 7 10 18 21 16 12 6 5 5 2 2 2 2 1 3 2 2 4 2 3 2 2 2 2 2 3 1 4 3 7 6 7 2 3 5 2 1 5 7 8 5 5 3 1 4 9 4 3 5 6 6 5 5 5 4 3 2 2 4 5 5 3 10 5 4 2 4 7 11 13 13 12 7 4 6 7 7 6
25 25 24 24 24 21 13 10 12 13 10 10 18 22 16 8 4 5 2 4 1 1 1 1 2 1 6 8 0 3 3 2 0 2 3 1 2 6 2 3 6 6 0 3 1 2 1 1 2 4 4 5 5 3 1 4 5 6 6 6 6 5 4 3 2 4 2 5 5 7 10 6 7 4 4 3 4 7 9 8 10 9 6 5 7 6 5 5
28 27 27 27 28 24 16 10 14 14 10 12 19 19 11 3 4 4 5 2 1 1 2 1 0 4 10 10 3 1 3 2 0 4 3 1 2 4 1 2 4 4 2 3 2 3 3 0 1 2 2 4 7 5 4 3 4 5 4 4 4 3 4 3 4 4 1 6 4 4 4 6 8 5 2 5 6 5 7 7 10 9 7 6 5 4 4 4
29 30 30 30 29 27 18 11 17 17 11 16 19 12 5 3 1 5 5 0 0 3 5 3 1 5 8 6 4 5 4 2 1 4 5 4 4 4 4 5 5 2 2 6 3 3 2 4 2 0 1 4 6 5 4 4 2 3 4 6 4 2 3 2 3 1 3 6 3 2 1 4 10 8 5 9 11 9 9 9 10 9 9 8 5 4 4 4
29 31 32 32 30 29 21 13 18 19 15 19 15 4 4 4 5 9 7 3 2 2 3 4 2 5 8 6 4 4 3 2 4 3 2 4 5 6 4 3 4 2 2 5 3 1 3 4 1 3 1 3 8 7 3 1 3 5 6 6 4 2 1 2 3 2 4 5 3 2 1 3 7 5 9 16 15 10 7 9 10 10 11 10 5 3 3 4
28 32 34 35 32 30 24 18 20 22 21 19 9 4 5 6 7 10 11 6 1 3 3 4 5 5 5 4 3 4 3 2 5 4 2 4 5 6 5 5 5 2 3 4 3 5 5 6 5 7 3 6 11 8 6 6 6 6 4 5 5 5 4 4 3 4 4 4 3 2 1 3 2 3 8 11 9 6 6 9 8 9 11 8 4 2 4 5
27 34 35 33 31 30 27 22 21 24 22 13 6 6 8 8 8 10 10 5 2 2 4 3 6 6 3 2 2 3 3 2 3 4 3 5 5 6 6 8 10 6 5 4 2 3 4 7 5 2 1 8 10 4 5 8 3 3 3 4 3 5 5 2 3 5 2 3 3 2 4 5 4 7 9 8 8 7 8 7 6 11 11 5 5 5 4 5
28 33 33 30 31 32 31 26 24 25 18 7 7 9 10 12 9 7 6 5 4 5 6 3 4 5 4 2 1 4 1 2 4 3 3 3 3 6 7 7 11 11 9 7 2 2 3 5 4 3 3 3 4 1 3 3 3 2 3 4 4 4 6 3 2 1 3 3 4 2 6 6 4 9 9 6 10 10 10 9 9 11 6 2 6 6 5 6
28 28 25 27 31 35 35 31 30 28 14 6 9 10 10 12 7 4 4 5 6 9 9 3 3 5 6 4 3 6 3 2 4 4 3 2 3 6 8 5 6 14 14 7 2 3 4 3 4 2 1 2 2 2 3 3 3 5 3 6 4 2 3 3 2 2 3 3 4 1 6 7 3 7 4 2 5 9 12 13 10 8 4 4 9 7 6 8
22 19 16 23 34 38 38 36 32 22 8 5 11 9 6 8 4 6 4 4 6 8 7 5 5 5 6 6 5 7 6 4 6 6 4 3 5 7 11 6 6 15 15 7 2 3 3 2 4 1 2 3 3 3 2 4 2 5 4 5 4 3 2 2 2 2 1 3 5 3 5 6 5 7 5 2 6 10 12 9 6 7 8 9 10 8 7 7
9 6 5 17 32 37 41 39 28 13 6 8 11 8 6 8 3 5 5 4 4 6 6 6 5 3 5 7 5 5 8 7 8 7 4 5 6 6 12 10 6 10 13 10 6 2 3 3 3 2 1 1 2 2 4 2 2 3 1 2 2 2 3 3 3 3 3 2 4 3 4 7 8 7 6 9 11 11 10 7 5 9 10 8 7 7 7 7
4 1 2 11 28 38 43 36 19 7 7 9 11 9 7 8 4 4 6 4 2 2 4 4 5 5 5 6 4 4 6 6 7 7 5 6 6 5 8 10 5 5 9 12 8 2 3 3 3 2 3 1 3 4 8 10 7 3 3 5 3 1 2 1 1 2 3 3 2 2 7 12 8 5 8 10 10 9 9 8 6 8 9 6 6 6 6 7
3 1 2 11 30 40 36 21 8 7 7 7 10 10 7 5 4 7 8 4 2 1 1 3 5 5 4 5 3 3 5 3 6 6 4 6 7 5 5 9 9 8 7 8 9 5 4 4 4 2 1 4 5 4 5 8 7 6 7 8 8 6 4 2 2 2 3 3 4 3 8 15 7 5 7 8 7 8 8 7 6 7 8 5 5 7 7 7
2 2 2 14 35 39 23 7 5 8 6 6 7 5 4 3 3 5 7 5 3 3 1 1 3 3 4 5 4 5 6 4 5 6 4 7 9 6 4 5 11 14 10 7 7 5 4 3 3 3 4 5 6 3 2 3 3 3 2 3 5 5 5 5 5 4 2 1 1 4 4 14 5 6 6 6 6 6 5 5 5 7 7 4 5 6 6 6
3 2 2 16 38 35 13 5 8 7 5 5 2 0 2 3 2 4 6 8 7 6 4 2 2 4 4 3 4 6 7 5 7 9 6 6 8 6 5 6 10 12 9 4 2 2 3 2 3 2 3 2 3 2 1 1 3 2 1 3 6 7 8 6 4 4 4 4 3 3 5 13 5 3 3 3 3 4 4 5 6 7 6 4 6 6 5 5
2 1 2 13 35 30 10 6 9 7 6 5 4 5 3 1 4 6 7 8 8 6 7 7 5 5 4 3 4 6 8 6 7 11 8 5 5 4 6 11 11 10 7 4 4 6 5 4 4 2 2 3 3 2 1 1 1 3 4 5 7 9 7 3 1 2 2 9 11 6 9 14 3 2 2 2 4 6 6 5 6 7 6 4 5 5 4 4
1 1 2 7 22 19 6 4 7 8 8 7 7 11 8 2 4 7 6 6 6 5 6 7 6 5 3 2 3 4 8 8 7 8 8 5 3 2 4 11 13 10 7 3 4 7 6 5 7 6 6 8 8 6 4 3 3 2 4 7 9 10 11 7 3 4 7 12 11 8 13 15 3 1 4 3 4 6 7 5 5 7 6 4 5 5 4 5
1 2 1 2 6 6 4 2 5 7 8 7 6 8 11 8 3 3 5 4 5 5 4 2 2 5 5 4 4 5 8 10 8 4 4 5 4 2 3 9 12 13 8 4 5 5 3 3 9 12 12 13 13 10 4 8 7 6 9 12 13 14 15 10 6 8 11 7 6 13 20 19 14 8 6 5 6 6 6 6 6 6 5 5 6 5 4 5
2 2 4 3 1 3 4 2 4 6 6 8 6 5 12 14 5 1 4 5 4 5 3 1 2 6 8 10 11 10 9 10 8 5 5 5 3 2 1 4 8 12 8 6 6 6 3 4 10 14 16 17 18 14 8 11 11 14 15 15 16 16 16 14 14 18 13 4 9 21 19 16 23 19 9 7 7 5 6 8 7 6 5 5 5 4 5 5
2 1 2 2 1 4 6 6 7 7 7 8 6 4 8 12 9 5 4 4 3 4 3 2 6 11 11 12 11 9 9 9 8 8 9 7 3 1 1 1 5 7 6 5 6 6 4 6 9 13 17 19 19 17 12 13 13 13 15 17 18 18 18 20 24 26 18 10 16 24 16 15 25 24 13 9 8 7 8 8 5 4 4 3 4 5 6 7
2 1 2 1 1 3 6 7 8 8 9 8 5 4 6 9 11 9 4 2 2 5 7 7 11 14 12 10 8 7 9 9 9 10 10 9 5 3 2 3 3 2 4 5 4 2 3 7 11 13 15 16 19 18 13 13 13 11 11 15 17 20 24 27 28 27 21 17 21 24 20 21 23 18 11 10 9 9 7 3 2 5 6 5 6 8 8 9
2 1 1 0 1 1 2 3 7 7 8 8 6 5 6 9 11 8 5 5 4 5 8 12 15 12 10 11 10 10 11 11 11 11 8 8 7 4 4 4 2 2 3 5 2 1 3 6 8 8 8 12 18 18 12 10 11 11 9 10 15 21 26 27 24 21 17 19 26 24 21 22 15 5 7 9 9 8 6 6 8 8 8 8 8 9 9 9
4 1 1 1 1 3 2 3 5 5 6 7 7 6 7 10 11 7 3 5 7 7 9 15 18 11 7 10 11 14 16 14 14 11 6 6 6 4 4 4 4 4 3 4 2 1 4 3 2 2 5 11 16 18 15 8 5 8 10 13 19 22 20 18 17 18 18 21 23 18 16 19 11 6 7 9 9 9 11 13 13 11 11 11 10 11 10 8
7 1 1 1 2 4 4 3 4 5 4 6 8 8 7 8 8 8 3 3 8 10 9 11 12 7 6 11 14 15 14 11 11 10 4 4 5 4 3 4 5 6 5 5 2 2 5 4 3 4 6 11 16 17 12 4 2 7 14 22 26 22 16 13 15 21 22 19 16 14 17 21 12 5 7 9 11 13 14 15 15 14 14 14 13 12 10 9
Wind_Direction
173 170 174 175 158 150 166 186 178 172 179 192 198 193 192 192 194 197 198 198 197 220 295 343 359 9 4 3 4 6 7 8 46 69 67 82 59 57 59 57 52 42 40 46 82 127 76 37 29 63 89 52 18 349 24 21 49 57 75 100 149 175 200 189 178 193 169 171 198 213 189 139 160 217 175 119 41 37 336 305 283 293 257 233 259 242 182 168
177 168 182 192 179 179 180 181 174 175 186 193 196 192 188 189 193 194 194 194 192 208 279 337 8 12 2 4 3 9 5 30 86 65 55 107 99 78 71 57 51 43 54 72 75 92 90 23 12 59 62 44 352 358 41 3 48 84 107 109 205 194 202 199 174 184 166 123 164 176 155 147 170 167 144 177 317 2 233 272 324 310 271 237 242 210 174 167
182 179 185 193 190 197 188 176 170 184 195 190 190 189 186 189 192 192 190 187 186 195 245 353 11 11 9 1 1 8 3 76 80 38 45 108 113 96 73 58 54 48 55 69 71 77 98 117 88 78 57 52 5 13 45 10 25 133 109 112 234 209 211 221 182 186 201 142 141 157 141 152 198 159 153 183 189 20 212 232 235 257 253 223 205 169 164 170
182 187 190 189 187 198 192 182 175 180 190 189 194 190 183 188 190 188 186 183 183 186 190 20 16 15 11 360 8 2 19 71 51 309 86 109 115 99 67 53 48 49 51 62 73 78 94 105 86 74 69 55 343 20 50 352 321 119 104 163 220 192 147 208 200 196 197 158 140 141 117 152 220 165 155 153 156 260 241 227 210 222 228 206 193 169 169 176
184 189 189 184 180 192 194 187 180 175 183 193 197 188 180 188 191 186 182 180 179 176 164 60 23 21 10 6 9 340 31 64 280 226 117 120 115 89 58 42 38 49 47 54 73 84 89 86 69 51 59 58 349 31 43 314 74 79 49 187 187 152 91 189 215 189 167 121 108 125 138 169 157 137 159 154 186 238 229 224 217 218 208 188 181 170 172 181
187 190 186 182 179 185 194 191 181 178 190 190 187 186 185 188 187 183 180 172 172 171 143 100 44 25 14 12 359 4 74 85 240 184 151 137 113 77 52 33 35 49 46 65 76 83 75 49 59 52 56 60 8 59 50 303 42 91 7 310 206 189 80 15 230 192 157 118 126 153 169 128 105 234 189 174 218 225 208 228 228 238 226 185 168 164 171 182
192 190 187 182 180 184 191 202 191 189 197 191 184 182 185 190 187 180 173 168 165 157 137 109 51 37 25 20 3 40 80 144 233 166 168 142 120 78 49 31 41 50 57 73 64 92 81 47 73 117 84 71 128 98 15 310 36 86 105 303 205 183 273 284 187 167 140 131 168 178 132 132 162 217 97 212 238 230 218 254 236 239 207 170 158 165 178 181
199 188 194 188 185 186 192 212 201 197 199 194 186 178 183 188 185 177 168 166 159 149 139 114 69 61 36 46 85 42 46 292 193 165 165 148 135 74 48 44 51 57 68 61 54 135 101 60 110 153 82 79 163 106 347 332 39 65 130 211 155 149 296 300 107 116 114 118 155 128 138 209 202 172 176 241 244 229 165 113 122 146 146 158 163 170 175 175
210 194 202 196 188 187 198 214 204 202 198 192 187 181 185 184 180 175 167 162 153 151 135 111 84 73 68 87 92 76 315 314 176 167 159 155 137 64 45 55 57 63 70 58 52 108 112 122 180 179 132 140 132 86 341 53 45 87 136 177 122 12 315 38 120 88 38 227 125 149 241 288 265 174 260 254 238 185 127 91 106 131 138 164 169 174 174 174
215 202 201 195 189 189 200 208 199 196 192 192 190 185 187 185 180 174 165 161 153 148 129 113 101 85 111 106 84 99 263 5 151 168 155 156 146 81 52 58 61 73 75 60 56 66 95 160 173 151 130 115 106 73 350 78 127 119 113 134 94 356 312 83 126 43 327 208 161 197 248 295 321 316 256 268 194 150 125 106 138 149 164 179 172 182 180 180
207 200 196 194 186 182 186 187 175 171 187 198 195 190 190 185 179 174 165 157 152 140 125 114 109 106 103 93 100 164 226 61 141 159 152 155 138 89 69 67 70 83 84 67 61 64 95 140 142 129 111 99 100 42 15 102 118 80 107 143 6 349 333 41 46 338 336 208 173 174 246 284 11 257 233 249 128 162 147 154 176 172 185 185 180 187 183 193
197 196 193 194 185 177 178 175 166 167 182 189 203 197 187 185 178 172 163 152 148 134 126 116 115 138 89 67 116 185 160 88 137 148 153 160 134 99 80 77 77 84 95 83 70 74 102 132 115 94 71 132 119 41 92 109 87 56 75 150 324 353 1 351 354 316 330 192 178 135 308 274 208 230 237 185 135 133 140 183 199 197 207 201 202 201 198 206
192 192 192 192 187 176 175 177 169 174 175 148 187 179 160 173 168 164 157 148 143 131 126 120 123 136 99 58 190 174 157 120 139 145 143 145 130 106 90 90 86 84 94 93 86 84 105 132 99 100 116 105 117 150 112 58 53 21 40 96 321 0 344 316 6 344 146 167 211 117 281 263 234 244 257 345 152 128 172 220 216 212 222 225 223 222 222 214
190 187 191 190 189 183 180 187 179 187 186 133 105 112 121 141 148 151 147 142 138 128 123 122 130 126 97 200 208 170 196 169 147 153 148 148 132 108 96 93 91 89 89 90 89 83 95 111 95 99 92 84 130 113 53 16 26 48 27 51 20 21 284 295 339 132 159 186 24 125 245 266 262 262 277 301 174 162 216 230 219 222 226 228 228 225 234 222
199 189 187 187 191 190 184 189 195 207 188 132 97 106 116 129 136 137 137 139 133 124 123 125 131 116 77 286 223 169 212 182 169 167 158 158 142 115 106 104 96 93 91 90 91 84 85 94 81 79 63 37 87 80 35 360 23 38 20 312 357 146 270 305 298 175 173 340 62 147 231 277 273 271 301 317 180 185 228 236 229 229 226 226 229 225 237 241
204 194 186 185 189 188 188 191 191 185 161 122 106 113 120 126 129 130 134 132 127 125 121 119 120 112 92 280 193 204 216 173 171 168 162 167 159 132 121 111 96 94 96 93 94 83 64 65 62 67 116 74 75 85 52 18 358 2 63 230 262 152 280 316 318 232 236 55 269 204 233 282 278 275 317 10 177 194 241 252 245 236 234 227 228 228 229 244
201 201 188 180 184 187 188 177 156 145 128 113 117 119 120 123 125 128 128 122 122 119 113 123 115 99 98 203 181 256 222 149 159 159 157 160 160 145 127 104 91 98 96 86 83 58 34 46 73 5 57 61 86 94 67 359 294 319 25 228 237 191 207 303 311 299 33 98 226 236 235 255 267 272 284 202 173 188 234 251 250 243 245 233 227 232 225 228
203 206 193 177 182 189 186 165 154 143 126 120 121 119 116 120 124 127 128 122 113 92 90 116 96 80 266 217 177 237 94 130 144 145 144 139 147 147 128 103 102 95 71 50 40 30 19 30 61 60 36 20 72 100 131 217 213 185 174 178 245 235 207 258 281 264 102 117 227 239 250 253 265 273 269 228 172 191 228 246 256 249 244 236 229 228 225 224
207 206 194 184 178 182 189 169 160 154 138 128 126 118 110 110 113 123 129 123 120 107 139 195 129 135 217 246 157 104 97 119 135 140 139 132 134 126 105 94 95 82 76 61 6 20 47 49 56 91 209 223 178 164 182 193 161 155 169 151 170 217 241 237 251 258 208 198 238 232 242 252 259 267 269 252 171 203 243 257 261 250 241 236 230 230 227 225
205 201 190 187 170 157 174 164 157 154 143 141 139 125 111 105 84 65 212 192 189 153 136 191 163 132 147 308 122 119 109 106 118 148 145 140 134 115 82 51 49 50 85 151 163 12 72 88 138 206 215 208 193 179 153 143 125 121 127 127 172 201 265 255 251 288 241 196 250 236 242 258 259 264 268 260 167 215 250 256 255 246 237 233 228 231 228 228
199 196 189 187 171 147 156 159 157 159 154 158 157 139 148 154 113 217 238 265 234 167 119 152 152 122 118 152 157 144 121 68 42 139 154 155 143 133 63 24 73 57 301 171 144 32 69 120 220 225 203 180 173 149 120 111 94 95 128 164 231 211 249 253 239 306 309 186 269 277 267 262 256 260 267 262 217 231 234 237 249 246 238 232 227 233 229 224
197 194 188 185 174 154 156 157 156 162 162 167 167 144 177 153 118 122 138 223 259 200 154 124 100 245 178 152 174 158 95 73 38 256 172 152 133 168 174 69 121 169 240 134 111 41 61 211 238 219 132 94 93 115 115 110 97 90 119 157 257 247 269 277 288 333 2 196 277 315 289 270 260 258 261 255 241 240 231 227 240 243 241 236 227 232 229 214
201 194 188 185 173 148 155 159 154 156 165 174 170 143 132 125 111 98 99 95 289 257 160 170 197 210 181 199 191 166 117 152 167 250 195 151 105 176 134 107 134 139 145 177 159 137 156 247 249 190 136 103 72 79 100 98 101 132 145 168 243 254 280 283 300 330 20 194 289 310 290 275 264 256 253 247 242 249 247 237 242 245 243 242 235 229 220 214
204 195 190 184 169 144 156 159 151 165 180 181 177 149 128 125 122 119 95 62 298 288 215 198 193 182 185 195 179 164 141 176 168 204 188 157 123 152 148 141 127 124 186 195 168 171 218 249 233 131 141 125 103 103 119 129 238 244 199 193 210 216 218 235 287 321 329 16 11 331 296 275 255 252 252 253 264 268 256 246 252 251 244 245 249 238 220 215
205 198 192 183 169 149 156 158 159 185 187 185 185 158 134 134 127 122 102 45 303 294 301 206 193 201 192 159 159 161 122 213 215 196 178 163 142 138 153 138 124 174 203 168 152 213 248 244 123 110 117 115 121 151 169 164 204 281 233 205 211 213 221 243 333 5 351 332 352 9 316 281 264 247 256 274 313 270 253 243 249 251 248 242 243 242 227 215
203 199 192 184 168 153 156 164 183 182 180 210 189 163 146 141 125 116 96 48 291 269 228 177 177 188 181 150 151 141 95 255 256 156 164 167 150 118 135 130 71 197 189 140 152 221 238 313 91 117 127 123 129 185 221 176 148 291 253 207 207 198 200 231 230 55 284 263 302 42 11 282 278 221 236 244 251 264 267 257 251 252 253 239 235 244 229 208
204 201 194 184 168 162 162 166 173 167 167 228 180 164 164 153 136 120 79 29 286 203 142 194 191 159 167 170 161 135 172 238 91 112 159 167 165 75 120 173 109 199 176 125 215 251 158 103 74 111 111 118 143 210 222 165 135 245 255 161 162 168 188 197 165 183 240 271 320 22 104 278 280 242 227 219 222 265 276 267 263 256 251 242 235 241 222 207
208 204 196 187 175 175 180 158 160 165 177 182 167 167 170 163 155 107 85 57 280 127 121 256 112 116 133 151 134 111 194 203 110 189 266 127 164 52 118 191 175 180 175 143 209 266 144 160 173 152 125 150 184 223 193 153 144 250 217 118 132 148 157 133 126 168 322 358 309 296 131 261 276 265 54 216 214 249 261 257 259 258 259 254 234 234 223 215
211 204 199 190 178 183 195 170 167 179 182 156 161 169 167 165 165 69 78 204 259 92 99 125 115 51 77 122 80 52 57 32 111 216 3 96 123 50 146 195 154 151 170 147 190 247 125 190 190 153 147 193 192 294 190 160 170 203 129 96 79 76 79 82 104 118 47 324 245 222 172 232 277 254 99 82 200 223 241 248 254 260 277 268 238 240 232 223
212 206 202 189 180 183 184 186 190 188 181 162 163 166 159 156 135 85 134 227 219 96 57 122 150 156 137 139 41 353 66 25 27 96 48 92 29 32 128 157 92 117 45 14 146 238 301 247 202 146 159 180 133 68 73 137 142 139 111 75 60 41 41 53 46 85 56 279 240 208 187 191 276 275 139 176 209 212 224 243 261 268 291 267 242 244 236 222
213 208 202 189 185 182 171 190 204 192 189 174 159 155 147 94 72 136 202 240 35 152 134 127 163 135 146 149 166 206 92 32 238 135 123 142 66 46 98 117 78 80 350 313 303 313 327 336 235 198 152 128 101 70 36 60 106 111 94 90 84 356 9 28 352 51 141 258 254 244 208 194 243 255 197 246 264 238 216 228 252 262 277 269 254 248 230 209
215 209 202 194 189 184 178 194 192 183 182 166 153 146 132 80 90 204 221 315 300 209 159 152 187 154 157 152 155 166 134 76 188 157 143 144 160 176 183 182 164 114 268 235 249 325 274 224 224 167 166 144 117 86 42 21 21 87 103 114 108 336 346 344 316 48 229 259 269 287 300 230 246 251 252 263 267 249 222 226 242 253 262 260 253 247 223 190
221 212 202 196 193 189 190 196 182 172 165 159 152 100 87 142 205 217 219 205 222 233 124 112 108 142 151 149 167 166 124 149 185 170 146 138 169 210 235 225 184 157 194 190 182 226 264 295 209 147 236 197 160 156 152 184 195 164 147 143 140 139 182 267 280 272 266 274 289 297 225 250 274 273 236 240 250 248 230 233 236 239 250 255 252 224 205 195
226 215 202 196 197 196 196 197 183 169 161 161 156 89 128 187 216 211 215 215 221 12 51 99 104 117 144 158 205 180 140 201 178 144 131 135 161 213 236 242 220 162 102 142 172 187 219 278 203 172 201 190 184 191 164 140 162 185 161 142 156 158 170 213 218 223 262 288 298 307 233 214 242 273 236 237 263 279 249 245 247 249 249 254 264 218 193 206
223 214 203 195 196 197 195 195 184 169 164 162 158 156 174 207 223 216 213 192 128 37 31 64 102 117 179 292 297 202 160 198 168 129 158 170 182 200 196 209 204 171 134 174 210 167 207 266 242 218 304 170 181 203 112 111 147 209 126 115 184 184 159 181 204 182 187 309 294 230 227 226 219 260 260 252 271 275 258 260 265 260 256 251 262 243 206 213
214 208 202 194 193 193 191 192 182 171 171 163 163 179 194 208 210 211 194 140 139 138 106 72 79 115 198 236 270 222 163 108 149 151 202 204 227 208 198 214 198 183 180 179 184 143 171 281 298 354 358 163 183 219 108 134 180 161 131 178 209 166 125 122 245 78 75 275 270 200 244 285 303 278 270 240 248 259 264 264 252 256 270 280 260 249 221 220
206 200 198 196 196 192 189 191 181 172 175 180 184 192 205 212 194 136 147 129 133 139 131 163 175 149 183 190 202 205 185 107 157 180 202 188 252 212 199 235 195 192 200 177 175 202 165 260 309 55 205 270 295 111 70 28 122 125 177 203 170 113 95 106 220 356 45 253 271 221 251 282 295 278 304 104 227 251 252 252 256 272 283 252 249 237 222 223
204 193 199 203 199 190 186 188 179 169 173 193 202 212 212 213 168 107 142 126 124 147 157 195 194 163 177 187 195 185 176 176 171 185 190 182 245 206 178 207 206 199 204 177 195 245 151 229 304 44 196 291 358 120 93 358 65 126 187 187 129 145 191 116 165 221 175 247 284 291 270 268 218 234 264 213 224 244 250 254 272 272 246 236 245 232 220 221
195 184 218 208 199 189 183 181 174 169 189 187 202 223 220 216 167 113 155 138 121 162 180 199 186 158 177 174 163 166 184 190 168 177 189 185 235 209 174 192 205 194 193 175 191 227 131 203 270 332 259 322 23 174 181 200 47 52 86 153 109 131 174 163 157 176 171 226 288 308 296 266 228 204 202 215 221 228 246 259 259 260 251 240 244 233 220 217
152 100 313 195 192 185 178 175 169 182 202 189 199 209 213 224 208 169 190 161 116 176 186 192 173 165 181 167 149 171 193 197 172 185 207 189 220 243 190 183 160 159 177 177 191 171 111 204 234 313 326 205 194 211 193 183 167 148 161 172 187 130 118 172 147 129 136 154 232 277 282 271 248 179 182 210 218 209 221 233 228 252 264 246 233 231 223 218
127 218 237 182 183 178 173 173 172 189 200 202 212 211 205 216 199 204 211 170 126 250 101 154 178 173 165 162 176 172 164 182 185 195 233 208 212 241 208 176 151 139 141 170 199 192 161 193 189 182 243 211 227 249 214 194 175 176 189 188 188 166 134 163 234 214 148 167 194 186 268 273 255 166 186 203 206 203 207 219 224 247 255 239 231 231 225 222
152 207 190 177 177 171 168 184 179 179 201 206 209 206 186 190 170 192 203 182 200 243 45 115 191 184 163 167 181 162 154 175 190 194 233 224 215 223 224 181 154 150 145 162 203 196 146 124 146 192 215 218 242 274 225 199 134 125 196 188 172 159 158 175 208 218 164 211 229 110 266 274 248 157 189 202 203 210 206 209 230 255 257 252 256 246 229 227
185 198 128 173 176 170 165 205 180 180 220 209 196 78 158 189 179 177 190 189 199 212 213 214 186 197 210 172 148 165 178 188 192 201 225 236 229 221 189 163 150 153 155 154 193 168 118 129 176 238 292 306 316 345 8 37 89 105 260 186 170 187 193 181 191 189 152 197 210 125 248 263 255 147 209 243 246 250 238 218 230 261 269 252 256 257 233 217
187 199 43 174 180 176 175 195 181 193 214 197 206 219 204 195 201 200 194 188 191 194 206 222 208 202 220 161 144 180 190 191 205 211 215 225 238 225 168 165 162 166 181 185 180 174 170 179 178 189 293 310 312 308 311 343 127 189 226 200 190 194 180 141 114 148 185 214 200 182 246 252 265 56 251 299 300 266 254 232 226 250 260 239 246 254 226 200
161 186 345 188 187 189 199 184 170 192 199 182 196 210 211 219 211 207 193 185 198 187 194 223 215 190 193 149 153 189 192 207 222 212 211 225 247 284 184 177 176 190 211 210 174 174 173 178 173 179 218 234 237 235 219 171 150 217 224 195 196 196 181 181 201 200 230 226 194 192 243 249 271 54 223 257 287 260 256 253 239 245 252 248 249 242 214 191
197 191 210 196 196 208 231 174 154 182 193 181 186 205 208 214 224 192 178 187 214 197 191 245 185 175 189 187 207 219 210 225 234 202 203 222 227 280 207 185 191 202 197 137 144 161 147 191 190 192 209 224 238 243 176 131 152 207 212 196 198 204 195 192 210 218 222 222 197 218 234 249 264 249 222 250 255 242 258 270 263 258 251 241 242 234 211 197
239 213 182 169 187 217 228 213 161 169 183 185 185 185 200 210 217 133 185 207 202 184 196 290 164 184 197 198 216 229 219 224 234 223 222 219 225 306 282 180 212 215 188 150 158 145 111 224 209 207 215 223 238 239 178 147 181 204 203 199 201 204 196 193 214 224 213 182 236 236 229 244 259 252 228 233 241 238 255 255 251 255 247 231 227 221 206 200
236 229 189 187 184 202 214 214 190 176 174 182 186 166 185 202 204 186 199 215 192 164 169 220 214 211 209 201 210 227 224 223 226 225 230 228 216 281 311 216 235 217 183 181 187 154 160 221 214 216 225 229 237 236 195 177 201 205 199 203 201 197 196 202 217 224 214 199 239 246 231 227 249 253 236 214 214 218 232 236 227 227 229 203 188 206 208 201
228 249 277 282 153 209 216 199 184 187 183 172 171 170 170 189 201 199 184 158 177 191 189 212 225 219 218 215 210 218 221 220 223 223 226 229 209 160 190 239 239 185 165 191 220 170 176 218 216 216 228 234 239 240 214 199 218 221 208 207 202 198 201 208 218 224 220 220 238 248 246 241 247 250 230 206 205 211 217 220 202 211 215 198 191 210 214 204
207 242 255 144 114 229 239 161 158 182 191 177 183 196 182 191 199 195 182 170 171 183 192 218 232 222 213 221 222 227 227 220 226 226 215 221 223 181 190 217 169 122 174 191 231 264 195 222 224 210 224 241 244 245 232 209 220 232 227 219 214 211 210 213 219 224 221 229 237 242 251 256 252 211 182 197 202 209 225 240 239 232 221 205 202 214 218 210
209 19 68 178 204 188 171 141 153 176 191 184 193 193 190 208 202 177 183 203 190 180 185 212 231 231 218 224 226 233 238 234 238 242 215 204 223 206 204 206 140 124 186 194 181 166 190 225 251 174 222 241 242 244 239 216 212 242 247 237 226 221 218 216 219 221 216 223 234 240 250 256 247 150 167 195 191 205 229 238 241 243 234 224 222 226 226 220
206 292 28 260 250 190 164 150 167 183 188 185 196 193 191 210 191 158 171 234 208 208 200 203 222 227 220 232 232 234 242 245 252 261 242 197 222 222 200 185 159 148 167 188 184 145 176 209 226 199 221 241 242 242 234 191 173 240 238 236 232 225 219 217 224 228 222 217 223 225 233 244 239 157 177 196 187 201 221 231 237 240 238 237 236 234 232 225